Location: Bright Sky Observatory
(40.7821°N, 74.2425°W)
Time: 16:24:48
(UTC-04:00)

Amateur Radio Satellites - All Passes

Search period start: 23 September 2014 15:54
Search period end: 24 September 2014 15:54
Location: Bright Sky Observatory, 40.7821°N, 74.2425°W

Satellite Date Start Highest point End Downlink Frequencies (MHz)
Time Altitude Azimuth
Uosat F 23 Sep 16:00:54 16:05:40 47° 71° (ENE) 16:10:27 435.120 FM
ITAMSAT 1 23 Sep 16:05:06 16:05:48 10° 272° (W) 16:06:29 435.822 SSB
AO-7 23 Sep 16:14:32 16:22:51 85° 71° (ENE) 16:31:11 29.400 - 29.500 MHz
Gurwin Techsat 1B 23 Sep 16:15:18 16:18:51 18° 268° (W) 16:22:25 435.225 FM
JAS-2 23 Sep 16:43:15 16:46:44 19° 62° (ENE) 16:50:14 435.800 - 435.900 CW/SSB, 435.910 FM
TMSAT-1 23 Sep 16:51:45 16:53:21 11° 272° (W) 16:54:58 436.925 FM
MaSat-1 23 Sep 17:12:07 17:15:48 74° 63° (ENE) 17:18:56 437.345 MHz
OPAL 23 Sep 17:17:52 17:22:33 35° 99° (E) 17:27:09 ?
Saudisat 1A 23 Sep 17:18:29 17:22:30 34° 310° (NW) 17:26:33 436.775 MHz
Hamsat 23 Sep 17:33:20 17:37:25 41° 72° (ENE) 17:41:30 145.90 MHz
Uosat F 23 Sep 17:41:07 17:44:40 20° 267° (W) 17:48:15 435.120 FM
KITSAT 1 23 Sep 17:50:24 17:57:13 31° 106° (ESE) 18:04:02 435.175 FM
AO-7 23 Sep 18:10:56 18:16:30 19° 269° (W) 18:22:07 29.400 - 29.500 MHz
JAS-2 23 Sep 18:26:22 18:31:26 52° 260° (W) 18:36:32 435.800 - 435.900 CW/SSB, 435.910 FM
PCSat 23 Sep 18:53:19 18:55:51 13° 39° (NE) 18:58:23 145.825 MHz
OPAL 23 Sep 18:56:55 19:01:18 29° 296° (WNW) 19:05:37 ?
Hamsat 23 Sep 19:10:39 19:13:32 17° 268° (W) 19:16:26 145.90 MHz
SO-67 23 Sep 19:12:45 19:16:11 74° 77° (ENE) 19:19:38 435.3500 MHz FM
AO-40 23 Sep 19:39:05 00:15:15 38° 187° (S) 05:41:18 Beacon 2401.320
KITSAT 1 23 Sep 19:44:10 19:52:07 60° 306° (NW) 20:00:08 435.175 FM
STRAND 1 23 Sep 19:44:15 19:49:23 69° 102° (ESE) 19:54:30 ?
HO-68 23 Sep 19:59:43 20:05:52 33° 62° (ENE) 20:12:04 435.675 MHz FM
Sapphire 23 Sep 20:08:29 20:13:36 40° 54° (NE) 20:18:40 437.095 MHz 1200 baud AX-25 AFSK
SO-50 23 Sep 20:29:13 20:32:08 17° 110° (ESE) 20:35:06 436.795 FM
PCSat 23 Sep 20:34:52 20:40:18 70° 59° (ENE) 20:45:41 145.825 MHz
Oscar 11 23 Sep 20:58:31 21:01:52 22° 67° (ENE) 21:05:13 145.825 FM, Beacon 2401.500 USB
FUNcube-1 23 Sep 21:03:16 21:04:08 11° 60° (ENE) 21:05:00 145.950 - 145.970 MHz USB
UKube-1 23 Sep 21:18:48 21:22:59 50° 72° (ENE) 21:27:11 145.840 MHz, 145.915 MHz
STRAND 1 23 Sep 21:25:03 21:27:59 16° 299° (WNW) 21:30:56 ?
ZACube-1 23 Sep 21:43:16 21:47:03 28° 68° (ENE) 21:50:55 437.345 MHz
KITSAT 1 23 Sep 21:44:09 21:49:24 18° 330° (NNW) 21:54:40 435.175 FM
HO-68 23 Sep 21:46:27 21:53:18 49° 260° (W) 22:00:13 435.675 MHz FM
Sapphire 23 Sep 21:52:13 21:56:51 29° 251° (WSW) 22:01:27 437.095 MHz 1200 baud AX-25 AFSK
SO-50 23 Sep 22:07:53 22:12:15 51° 307° (NW) 22:16:45 436.795 FM
PCSat 23 Sep 22:19:56 22:23:04 16° 256° (WSW) 22:26:12 145.825 MHz
Oscar 11 23 Sep 22:33:54 22:37:51 33° 263° (W) 22:41:49 145.825 FM, Beacon 2401.500 USB
FUNcube-1 23 Sep 22:35:20 22:39:47 83° 258° (WSW) 22:44:22 145.950 - 145.970 MHz USB
UKube-1 23 Sep 22:57:10 22:59:27 14° 268° (W) 23:01:46 145.840 MHz, 145.915 MHz
ZACube-1 23 Sep 23:19:34 23:23:22 28° 265° (W) 23:27:17 437.345 MHz
UOSAT-12 23 Sep 23:20:10 23:24:47 78° 121° (ESE) 23:29:30 437.025 FM, 437.400 FM
Oscar 10/S400 23 Sep 23:42:26 00:32:26 52° 207° (SSW) 07:59:50 145.825 - 145.975 CW/USB, Beacon 145.810 USB
ISS 24 Sep 00:01:42 00:03:04 12° 129° (SE) 00:04:26 145.800 FM
Saudisat 1A 24 Sep 00:06:00 00:09:31 23° 45° (NE) 00:13:01 436.775 MHz
PANSAT 24 Sep 00:39:19 00:40:56 12° 174° (S) 00:42:33 not established
UOSAT-12 24 Sep 01:02:30 01:05:30 17° 320° (NW) 01:08:33 437.025 FM, 437.400 FM
ISS 24 Sep 01:36:01 01:39:20 75° 324° (NW) 01:42:41 145.800 FM
Oscar 16 24 Sep 01:41:05 01:45:17 25° 94° (E) 01:49:27 437.025 USB, Beacon 2401.1428
KITSAT 1 24 Sep 01:42:57 01:48:28 19° 32° (NNE) 01:53:58 435.175 FM
Saudisat 1A 24 Sep 01:45:05 01:49:17 43° 243° (WSW) 01:53:27 436.775 MHz
PANSAT 24 Sep 02:18:55 02:20:21 12° 187° (S) 02:21:46 not established
ITAMSAT 1 24 Sep 02:33:59 02:38:38 32° 97° (E) 02:43:16 435.822 SSB
Uribyol 2 24 Sep 02:36:50 02:41:40 36° 98° (E) 02:46:27 436.500 FM
Oscar 19 24 Sep 02:39:57 02:45:09 87° 104° (ESE) 02:50:17 437.125 CW, 437.150 USB
Gurwin Techsat 1B 24 Sep 02:50:32 02:54:41 23° 94° (E) 02:58:48 435.225 FM
AO-Echo 24 Sep 02:54:13 02:59:05 61° 101° (E) 03:04:05 ?
RS-15 24 Sep 03:02:02 03:12:12 44° 109° (ESE) 03:22:13 29.354 - 29.394 USB, Beacon 29.352 USB
JAS-1B 24 Sep 03:07:46 03:13:28 75° 103° (ESE) 03:19:20 435.800 - 435.900 CW/SSB
AO-27 24 Sep 03:09:54 03:15:08 72° 103° (ESE) 03:20:20 436.795 MHz FM
ISS 24 Sep 03:14:07 03:16:30 18° 343° (NNW) 03:18:53 145.800 FM
Oscar 16 24 Sep 03:19:57 03:24:44 39° 291° (WNW) 03:29:29 437.025 USB, Beacon 2401.1428
TMSAT-1 24 Sep 03:23:57 03:28:46 34° 97° (E) 03:33:33 436.925 FM
KITSAT 1 24 Sep 03:37:32 03:45:35 66° 56° (NE) 03:53:34 435.175 FM
Uosat F 24 Sep 04:10:18 04:13:03 15° 91° (E) 04:15:47 435.120 FM
ITAMSAT 1 24 Sep 04:13:29 04:18:03 31° 293° (WNW) 04:22:36 435.822 SSB
Uribyol 2 24 Sep 04:16:34 04:20:58 28° 294° (WNW) 04:25:21 436.500 FM
AO-7 24 Sep 04:17:11 04:24:04 28° 95° (E) 04:30:54 29.400 - 29.500 MHz
Oscar 19 24 Sep 04:21:42 04:23:43 12° 301° (WNW) 04:25:44 437.125 CW, 437.150 USB
Gurwin Techsat 1B 24 Sep 04:29:47 04:34:50 45° 290° (WNW) 04:39:50 435.225 FM
OPAL 24 Sep 04:32:12 04:37:18 62° 71° (ENE) 04:42:28 ?
AO-Echo 24 Sep 04:34:25 04:37:23 16° 297° (WNW) 04:40:25 ?
AO-27 24 Sep 04:51:05 04:54:01 15° 299° (WNW) 04:56:58 436.795 MHz FM
ISS 24 Sep 04:52:35 04:54:13 13° 4° (N) 04:55:52 145.800 FM
SO-50 24 Sep 04:59:46 05:03:19 20° 43° (NE) 05:06:53 436.795 FM
JAS-1B 24 Sep 05:00:33 05:03:29 15° 302° (WNW) 05:06:25 435.800 - 435.900 CW/SSB
TMSAT-1 24 Sep 05:04:00 05:08:35 30° 293° (WNW) 05:13:08 436.925 FM
RS-15 24 Sep 05:13:32 05:24:16 55° 311° (NW) 05:34:59 29.354 - 29.394 USB, Beacon 29.352 USB
STRAND 1 24 Sep 05:24:36 05:26:37 12° 59° (ENE) 05:28:38 ?
KITSAT 1 24 Sep 05:33:51 05:40:21 28° 255° (WSW) 05:46:51 435.175 FM
JAS-2 24 Sep 05:34:22 05:39:09 21° 93° (E) 05:44:16 435.800 - 435.900 CW/SSB, 435.910 FM
Uosat F 24 Sep 05:47:16 05:52:15 63° 287° (WNW) 05:57:13 435.120 FM
AO-7 24 Sep 06:09:10 06:17:18 63° 293° (WNW) 06:25:26 29.400 - 29.500 MHz
UOSAT-12 24 Sep 06:12:10 06:13:41 11° 35° (NE) 06:15:12 437.025 FM, 437.400 FM
OPAL 24 Sep 06:13:23 06:16:34 16° 267° (W) 06:19:47 ?
ISS 24 Sep 06:28:57 06:31:49 25° 24° (NNE) 06:34:39 145.800 FM
SO-50 24 Sep 06:39:31 06:44:17 63° 241° (WSW) 06:49:06 436.795 FM
Hamsat 24 Sep 06:54:56 06:59:11 88° 103° (ESE) 07:03:22 145.90 MHz
MaSat-1 24 Sep 06:56:01 07:00:31 35° 108° (ESE) 07:04:56 437.345 MHz
STRAND 1 24 Sep 06:59:58 07:05:03 86° 256° (WSW) 07:10:11 ?
JAS-2 24 Sep 07:18:17 07:24:28 66° 287° (WNW) 07:31:27 435.800 - 435.900 CW/SSB, 435.910 FM
RS-15 24 Sep 07:31:48 07:39:51 22° 342° (NNW) 07:47:59 29.354 - 29.394 USB, Beacon 29.352 USB
UOSAT-12 24 Sep 07:50:07 07:54:49 61° 55° (NE) 07:59:26 437.025 FM, 437.400 FM
AO-7 24 Sep 08:04:29 08:08:29 15° 314° (NW) 08:12:29 29.400 - 29.500 MHz
ISS 24 Sep 08:05:26 08:08:40 49° 221° (SW) 08:11:52 145.800 FM
SO-67 24 Sep 08:09:25 08:12:53 86° 282° (WNW) 08:16:19 435.3500 MHz FM
MaSat-1 24 Sep 08:32:50 08:37:12 30° 304° (WNW) 08:41:26 437.345 MHz
JAS-2 24 Sep 09:07:07 09:08:36 11° 303° (WNW) 09:10:08 435.800 - 435.900 CW/SSB, 435.910 FM
HO-68 24 Sep 09:14:23 09:20:46 33° 97° (E) 09:27:06 435.675 MHz FM
UOSAT-12 24 Sep 09:31:44 09:34:27 15° 252° (WSW) 09:37:08 437.025 FM, 437.400 FM
RS-15 24 Sep 09:49:30 09:57:43 23° 19° (NNE) 10:06:04 29.354 - 29.394 USB, Beacon 29.352 USB
Oscar 11 24 Sep 10:21:24 10:25:33 43° 99° (E) 10:29:40 145.825 FM, Beacon 2401.500 USB
FUNcube-1 24 Sep 10:25:38 10:29:06 21° 93° (E) 10:32:30 145.950 - 145.970 MHz USB
UKube-1 24 Sep 10:43:08 10:47:31 83° 284° (WNW) 10:51:52 145.840 MHz, 145.915 MHz
Sapphire 24 Sep 10:50:13 10:55:08 37° 111° (ESE) 11:00:05 437.095 MHz 1200 baud AX-25 AFSK
HO-68 24 Sep 11:01:47 11:08:35 47° 294° (WNW) 11:15:22 435.675 MHz FM
ZACube-1 24 Sep 11:08:19 11:12:54 60° 100° (E) 11:17:22 437.345 MHz
PCSat 24 Sep 11:16:07 11:21:29 68° 116° (ESE) 11:26:53 145.825 MHz
Oscar 11 24 Sep 11:58:33 12:01:24 17° 295° (WNW) 12:04:13 145.825 FM, Beacon 2401.500 USB
FUNcube-1 24 Sep 12:01:20 12:05:36 38° 289° (WNW) 12:09:47 145.950 - 145.970 MHz USB
RS-15 24 Sep 12:02:22 12:13:15 57° 49° (NE) 12:24:32 29.354 - 29.394 USB, Beacon 29.352 USB
JAS-1B 24 Sep 12:06:42 12:09:24 12° 56° (NE) 12:11:58 435.800 - 435.900 CW/SSB
Oscar 19 24 Sep 12:19:53 12:22:57 16° 61° (ENE) 12:26:02 437.125 CW, 437.150 USB
Sapphire 24 Sep 12:33:45 12:38:35 32° 309° (NW) 12:43:27 437.095 MHz 1200 baud AX-25 AFSK
ZACube-1 24 Sep 12:46:16 12:48:46 15° 297° (WNW) 12:51:15 437.345 MHz
AO-27 24 Sep 12:51:41 12:54:13 14° 60° (ENE) 12:56:46 436.795 MHz FM
Oscar 16 24 Sep 12:57:39 13:02:20 36° 68° (ENE) 13:07:03 437.025 USB, Beacon 2401.1428
PCSat 24 Sep 13:01:26 13:05:25 20° 315° (NW) 13:09:24 145.825 MHz
JAS-1B 24 Sep 13:50:55 13:59:06 67° 72° (ENE) 14:05:55 435.800 - 435.900 CW/SSB
ITAMSAT 1 24 Sep 13:51:42 13:56:38 47° 71° (ENE) 14:01:36 435.822 SSB
Uribyol 2 24 Sep 13:54:26 13:59:26 53° 71° (ENE) 14:04:30 436.500 FM
Oscar 19 24 Sep 13:56:33 14:01:43 68° 258° (WSW) 14:06:55 437.125 CW, 437.150 USB
AO-Echo 24 Sep 14:07:13 14:11:55 76° 75° (ENE) 14:16:37 ?
Gurwin Techsat 1B 24 Sep 14:11:15 14:16:01 35° 68° (ENE) 14:20:48 435.225 FM
RS-15 24 Sep 14:15:06 14:25:22 45° 251° (WSW) 14:36:04 29.354 - 29.394 USB, Beacon 29.352 USB
AO-27 24 Sep 14:27:53 14:33:03 79° 257° (WSW) 14:38:16 436.795 MHz FM
Oscar 16 24 Sep 14:37:19 14:41:43 28° 265° (W) 14:46:08 437.025 USB, Beacon 2401.1428
TMSAT-1 24 Sep 14:44:24 14:49:30 52° 71° (ENE) 14:54:38 436.925 FM
AO-7 24 Sep 15:15:51 15:23:21 40° 61° (ENE) 15:30:50 29.400 - 29.500 MHz
Uosat F 24 Sep 15:23:10 15:26:51 21° 64° (ENE) 15:30:32 435.120 FM
ITAMSAT 1 24 Sep 15:32:34 15:36:21 21° 267° (W) 15:40:10 435.822 SSB
Uribyol 2 24 Sep 15:35:44 15:39:14 18° 268° (W) 15:42:45 436.500 FM
AO-Echo 24 Sep 15:50:39 15:51:14 10° 271° (W) 15:51:49 ?
